Torna al catalogo

THORAD AGENA D DEB

AttivoPO
NORAD 42508·DEBRIS·🇺🇸 United States

Lanciato Apr 8, 1970 da Vandenberg Space Force Base

Loading…

Prossimi Passaggi (prossime 24 ore)

TLE

AggiornatoSource: Space-Track

Epoca: Sep 13, 2026, 10:15 UTC

1 42508U 70025RN  26256.42750731  .00000319  00000-0  26662-3 0  9991
2 42508  99.8024 134.2077 0120809 103.1960 258.2708 13.92937394188523

Traccia THORAD AGENA D DEB in tempo reale con AllMySat

Download on the App Store